Time,TemperatureF,DewpointF,PressureIn,WindDirection,WindDirectionDegrees,WindSpeedMPH,WindSpeedGustMPH,Humidity,HourlyPrecipIn,Conditions,Clouds,dailyrainin,SoftwareType,DateUTC
2013-12-14 00:01:00,10.2,8.0,29.02,NNE,22,0.0,0.0,83,0.00,,,0.00,Rainwise IP-100,2013-12-14 05:01:00,
2013-12-14 00:02:00,10.3,8.0,29.02,NNE,22,0.0,0.0,85,0.00,,,0.00,Rainwise IP-100,2013-12-14 05:02:00,
2013-12-14 00:04:00,10.3,8.0,29.02,NNE,22,0.0,0.0,86,0.00,,,0.00,Rainwise IP-100,2013-12-14 05:04:00,
2013-12-14 00:06:00,10.3,8.0,29.02,NNE,22,0.0,0.0,85,0.00,,,0.00,Rainwise IP-100,2013-12-14 05:06:00,
2013-12-14 00:11:00,10.2,8.0,29.02,NNE,22,0.0,0.0,84,0.00,,,0.00,Rainwise IP-100,2013-12-14 05:11:00,
2013-12-14 00:12:00,10.2,8.0,29.02,NNE,22,0.0,0.0,84,0.00,,,0.00,Rainwise IP-100,2013-12-14 05:12:00,
2013-12-14 00:17:00,10.2,8.0,29.02,NNE,22,0.0,0.0,83,0.00,,,0.00,Rainwise IP-100,2013-12-14 05:17:00,
2013-12-14 00:22:00,10.1,8.0,29.02,NNE,22,0.0,0.0,84,0.00,,,0.00,Rainwise IP-100,2013-12-14 05:22:00,
2013-12-14 00:27:00,9.9,8.0,29.02,NNE,22,0.0,0.0,85,0.00,,,0.00,Rainwise IP-100,2013-12-14 05:27:00,
2013-12-14 00:32:00,9.9,8.0,29.02,NNE,22,0.0,0.0,85,0.00,,,0.00,Rainwise IP-100,2013-12-14 05:32:00,
2013-12-14 00:37:00,10.1,8.0,29.02,NNE,22,0.0,0.0,85,0.00,,,0.00,Rainwise IP-100,2013-12-14 05:37:00,
2013-12-14 00:42:00,10.3,8.0,29.01,NNE,22,0.0,0.0,85,0.00,,,0.00,Rainwise IP-100,2013-12-14 05:42:00,
2013-12-14 00:47:00,10.2,8.0,29.01,NNE,22,0.0,0.0,85,0.00,,,0.00,Rainwise IP-100,2013-12-14 05:47:00,
2013-12-14 00:53:00,10.1,8.0,29.01,NNE,22,0.0,0.0,86,0.00,,,0.00,Rainwise IP-100,2013-12-14 05:53:00,
2013-12-14 00:58:00,10.1,8.0,29.01,NNE,22,0.0,2.0,87,0.00,,,0.00,Rainwise IP-100,2013-12-14 05:58:00,
2013-12-14 01:03:00,10.1,8.0,29.02,NNE,22,0.0,0.0,87,0.00,,,0.00,Rainwise IP-100,2013-12-14 06:03:00,
2013-12-14 01:08:00,9.9,8.0,29.02,NNE,22,0.0,0.0,89,0.00,,,0.00,Rainwise IP-100,2013-12-14 06:08:00,
2013-12-14 01:13:00,9.9,8.0,29.02,NNE,22,0.0,0.0,89,0.00,,,0.00,Rainwise IP-100,2013-12-14 06:13:00,
2013-12-14 01:18:00,9.9,8.0,29.02,NNE,22,0.0,0.0,90,0.00,,,0.00,Rainwise IP-100,2013-12-14 06:18:00,
2013-12-14 01:23:00,10.3,8.0,29.03,NNE,22,0.0,0.0,86,0.00,,,0.00,Rainwise IP-100,2013-12-14 06:23:00,
2013-12-14 01:28:00,10.5,8.0,29.02,NNE,22,0.0,0.0,85,0.00,,,0.00,Rainwise IP-100,2013-12-14 06:28:00,
2013-12-14 01:33:00,10.6,8.0,29.02,NNE,22,0.0,0.0,82,0.00,,,0.00,Rainwise IP-100,2013-12-14 06:33:00,
2013-12-14 01:38:00,10.7,8.0,29.02,NNE,22,0.0,0.0,81,0.00,,,0.00,Rainwise IP-100,2013-12-14 06:38:00,
2013-12-14 01:43:00,10.7,8.0,29.02,NNE,22,0.0,0.0,80,0.00,,,0.00,Rainwise IP-100,2013-12-14 06:43:00,
2013-12-14 01:48:00,10.8,8.0,29.02,NNE,22,2.0,0.0,85,0.00,,,0.00,Rainwise IP-100,2013-12-14 06:48:00,
2013-12-14 01:54:00,10.8,8.0,29.02,NNE,22,1.0,2.0,90,0.00,,,0.00,Rainwise IP-100,2013-12-14 06:54:00,
2013-12-14 01:59:00,10.8,8.0,29.02,NNE,22,0.0,2.0,91,0.00,,,0.00,Rainwise IP-100,2013-12-14 06:59:00,
2013-12-14 02:04:00,10.8,8.0,29.02,NNE,22,0.0,0.0,92,0.00,,,0.00,Rainwise IP-100,2013-12-14 07:04:00,
2013-12-14 02:09:00,10.9,8.0,29.02,NNE,22,1.0,2.0,89,0.00,,,0.00,Rainwise IP-100,2013-12-14 07:09:00,
2013-12-14 02:14:00,11.3,8.0,29.02,NNE,22,0.0,2.0,85,0.00,,,0.00,Rainwise IP-100,2013-12-14 07:14:00,
2013-12-14 02:19:00,11.6,11.0,29.03,NNE,22,0.0,0.0,83,0.00,,,0.00,Rainwise IP-100,2013-12-14 07:19:00,
2013-12-14 02:24:00,11.8,11.0,29.03,NNE,22,0.0,0.0,84,0.00,,,0.00,Rainwise IP-100,2013-12-14 07:24:00,
2013-12-14 02:29:00,12.2,11.0,29.04,NNE,22,0.0,0.0,85,0.00,,,0.00,Rainwise IP-100,2013-12-14 07:29:00,
2013-12-14 02:34:00,12.4,11.0,29.04,NNE,22,0.0,0.0,85,0.00,,,0.00,Rainwise IP-100,2013-12-14 07:34:00,
2013-12-14 02:39:00,12.1,11.0,29.04,NNE,22,0.0,0.0,90,0.00,,,0.00,Rainwise IP-100,2013-12-14 07:39:00,
2013-12-14 02:44:00,11.9,11.0,29.04,NNE,22,1.0,2.0,92,0.00,,,0.00,Rainwise IP-100,2013-12-14 07:44:00,
2013-12-14 02:49:00,12.1,11.0,29.05,NNE,22,0.0,2.0,89,0.00,,,0.00,Rainwise IP-100,2013-12-14 07:49:00,
2013-12-14 02:55:00,12.2,11.0,29.05,NNE,22,2.0,0.0,88,0.00,,,0.00,Rainwise IP-100,2013-12-14 07:55:00,
2013-12-14 03:00:00,12.3,11.0,29.04,NNE,22,0.0,2.0,89,0.00,,,0.00,Rainwise IP-100,2013-12-14 08:00:00,
2013-12-14 03:05:00,12.5,11.0,29.05,NNE,22,0.0,0.0,87,0.00,,,0.00,Rainwise IP-100,2013-12-14 08:05:00,
2013-12-14 03:10:00,12.7,11.0,29.04,ENE,67,1.0,2.0,85,0.00,,,0.00,Rainwise IP-100,2013-12-14 08:10:00,
2013-12-14 03:15:00,12.9,11.0,29.04,ENE,67,1.0,4.0,84,0.00,,,0.00,Rainwise IP-100,2013-12-14 08:15:00,
2013-12-14 03:20:00,13.2,11.0,29.04,East,90,2.0,4.0,84,0.00,,,0.00,Rainwise IP-100,2013-12-14 08:20:00,
2013-12-14 03:25:00,13.4,11.0,29.04,East,90,3.0,7.0,84,0.00,,,0.00,Rainwise IP-100,2013-12-14 08:25:00,
2013-12-14 03:30:00,13.5,11.0,29.05,East,90,2.0,5.0,85,0.00,,,0.00,Rainwise IP-100,2013-12-14 08:30:00,
2013-12-14 03:35:00,13.5,11.0,29.04,ENE,67,2.0,3.0,86,0.00,,,0.00,Rainwise IP-100,2013-12-14 08:35:00,
2013-12-14 03:40:00,13.5,11.0,29.04,ENE,67,0.0,4.0,86,0.00,,,0.00,Rainwise IP-100,2013-12-14 08:40:00,
2013-12-14 03:45:00,13.5,11.0,29.04,ENE,67,2.0,2.0,88,0.00,,,0.00,Rainwise IP-100,2013-12-14 08:45:00,
2013-12-14 03:50:00,13.5,11.0,29.04,East,90,2.0,2.0,89,0.00,,,0.00,Rainwise IP-100,2013-12-14 08:50:00,
2013-12-14 03:56:00,13.5,11.0,29.04,ENE,67,2.0,3.0,90,0.00,,,0.00,Rainwise IP-100,2013-12-14 08:56:00,
2013-12-14 04:01:00,13.5,11.0,29.04,ENE,67,1.0,4.0,91,0.00,,,0.00,Rainwise IP-100,2013-12-14 09:01:00,
2013-12-14 04:06:00,13.6,11.0,29.04,ENE,67,0.0,4.0,92,0.00,,,0.00,Rainwise IP-100,2013-12-14 09:06:00,
2013-12-14 04:11:00,13.6,11.0,29.04,ENE,67,1.0,2.0,93,0.00,,,0.00,Rainwise IP-100,2013-12-14 09:11:00,
2013-12-14 04:16:00,13.6,11.0,29.04,ENE,67,2.0,2.0,93,0.00,,,0.00,Rainwise IP-100,2013-12-14 09:16:00,
2013-12-14 04:21:00,13.6,11.0,29.03,ENE,67,2.0,4.0,93,0.00,,,0.00,Rainwise IP-100,2013-12-14 09:21:00,
2013-12-14 04:26:00,13.6,11.0,29.03,ESE,112,2.0,4.0,93,0.00,,,0.00,Rainwise IP-100,2013-12-14 09:26:00,
2013-12-14 04:31:00,13.6,11.0,29.03,East,90,2.0,3.0,93,0.00,,,0.00,Rainwise IP-100,2013-12-14 09:31:00,
2013-12-14 04:36:00,13.6,11.0,29.03,ENE,67,2.0,3.0,93,0.00,,,0.00,Rainwise IP-100,2013-12-14 09:36:00,
2013-12-14 04:41:00,13.5,11.0,29.03,ENE,67,2.0,2.0,93,0.00,,,0.00,Rainwise IP-100,2013-12-14 09:41:00,
2013-12-14 04:46:00,13.6,11.0,29.02,ENE,67,2.0,4.0,93,0.00,,,0.00,Rainwise IP-100,2013-12-14 09:46:00,
2013-12-14 04:51:00,13.7,11.0,29.02,ENE,67,1.0,5.0,93,0.00,,,0.00,Rainwise IP-100,2013-12-14 09:51:00,
2013-12-14 04:57:00,13.7,11.0,29.02,ENE,67,3.0,6.0,93,0.00,,,0.00,Rainwise IP-100,2013-12-14 09:57:00,
2013-12-14 05:02:00,13.7,11.0,29.02,ENE,67,2.0,6.0,93,0.00,,,0.00,Rainwise IP-100,2013-12-14 10:02:00,
2013-12-14 05:07:00,13.6,11.0,29.02,East,90,3.0,8.0,93,0.00,,,0.00,Rainwise IP-100,2013-12-14 10:07:00,
2013-12-14 05:12:00,13.5,11.0,29.02,NNE,22,2.0,9.0,93,0.00,,,0.00,Rainwise IP-100,2013-12-14 10:12:00,
2013-12-14 05:17:00,13.4,11.0,29.02,ESE,112,4.0,9.0,93,0.00,,,0.00,Rainwise IP-100,2013-12-14 10:17:00,
2013-12-14 05:22:00,13.3,11.0,29.02,ESE,112,4.0,8.0,93,0.00,,,0.00,Rainwise IP-100,2013-12-14 10:22:00,
2013-12-14 05:27:00,13.2,11.0,29.02,East,90,2.0,8.0,93,0.00,,,0.00,Rainwise IP-100,2013-12-14 10:27:00,
2013-12-14 05:32:00,13.1,11.0,29.02,ENE,67,3.0,8.0,93,0.00,,,0.00,Rainwise IP-100,2013-12-14 10:32:00,
2013-12-14 05:37:00,13.1,11.0,29.02,SE,135,4.0,9.0,93,0.00,,,0.00,Rainwise IP-100,2013-12-14 10:37:00,
2013-12-14 05:42:00,12.9,11.0,29.03,East,90,1.0,9.0,93,0.00,,,0.00,Rainwise IP-100,2013-12-14 10:42:00,
2013-12-14 05:47:00,12.9,11.0,29.03,ESE,112,6.0,9.0,93,0.00,,,0.00,Rainwise IP-100,2013-12-14 10:47:00,
2013-12-14 05:52:00,12.8,11.0,29.03,ESE,112,7.0,11.0,93,0.00,,,0.00,Rainwise IP-100,2013-12-14 10:52:00,
2013-12-14 05:58:00,12.6,11.0,29.03,East,90,1.0,9.0,93,0.00,,,0.00,Rainwise IP-100,2013-12-14 10:58:00,
2013-12-14 06:03:00,12.6,11.0,29.02,ESE,112,2.0,9.0,93,0.00,,,0.00,Rainwise IP-100,2013-12-14 11:03:00,
2013-12-14 06:08:00,12.6,11.0,29.03,East,90,2.0,10.0,93,0.00,,,0.00,Rainwise IP-100,2013-12-14 11:08:00,
2013-12-14 06:13:00,12.6,11.0,29.03,ESE,112,3.0,9.0,93,0.00,,,0.00,Rainwise IP-100,2013-12-14 11:13:00,
2013-12-14 06:18:00,12.5,11.0,29.03,East,90,2.0,9.0,93,0.00,,,0.00,Rainwise IP-100,2013-12-14 11:18:00,
2013-12-14 06:23:00,12.5,11.0,29.03,ESE,112,4.0,7.0,93,0.00,,,0.00,Rainwise IP-100,2013-12-14 11:23:00,
2013-12-14 06:28:00,12.4,11.0,29.03,ESE,112,4.0,6.0,93,0.00,,,0.00,Rainwise IP-100,2013-12-14 11:28:00,
2013-12-14 06:33:00,12.3,11.0,29.03,SE,135,6.0,9.0,93,0.00,,,0.00,Rainwise IP-100,2013-12-14 11:33:00,
2013-12-14 06:38:00,12.2,11.0,29.03,ESE,112,7.0,11.0,93,0.00,,,0.00,Rainwise IP-100,2013-12-14 11:38:00,
2013-12-14 06:43:00,11.9,11.0,29.03,ESE,112,8.0,11.0,93,0.00,,,0.00,Rainwise IP-100,2013-12-14 11:43:00,
2013-12-14 06:48:00,11.8,11.0,29.03,ESE,112,6.0,12.0,93,0.00,,,0.00,Rainwise IP-100,2013-12-14 11:48:00,
2013-12-14 06:53:00,11.7,11.0,29.03,ESE,112,5.0,7.0,93,0.00,,,0.00,Rainwise IP-100,2013-12-14 11:53:00,
2013-12-14 06:59:00,11.6,11.0,29.03,ENE,67,4.0,9.0,93,0.00,,,0.00,Rainwise IP-100,2013-12-14 11:59:00,
2013-12-14 07:04:00,11.5,11.0,29.04,SE,135,7.0,13.0,93,0.00,,,0.00,Rainwise IP-100,2013-12-14 12:04:00,
2013-12-14 07:09:00,11.3,11.0,29.03,ESE,112,4.0,11.0,93,0.00,,,0.00,Rainwise IP-100,2013-12-14 12:09:00,
2013-12-14 07:14:00,11.2,11.0,29.03,ESE,112,5.0,11.0,93,0.00,,,0.00,Rainwise IP-100,2013-12-14 12:14:00,
2013-12-14 07:19:00,10.9,8.0,29.04,ESE,112,2.0,12.0,92,0.00,,,0.00,Rainwise IP-100,2013-12-14 12:19:00,
2013-12-14 07:24:00,10.9,8.0,29.04,East,90,5.0,14.0,92,0.00,,,0.00,Rainwise IP-100,2013-12-14 12:24:00,
2013-12-14 07:29:00,10.7,8.0,29.04,East,90,9.0,17.0,92,0.00,,,0.00,Rainwise IP-100,2013-12-14 12:29:00,
2013-12-14 07:34:00,10.4,8.0,29.03,ESE,112,11.0,13.0,92,0.00,,,0.00,Rainwise IP-100,2013-12-14 12:34:00,
2013-12-14 07:39:00,10.3,8.0,29.04,East,90,6.0,16.0,92,0.00,,,0.00,Rainwise IP-100,2013-12-14 12:39:00,
2013-12-14 07:44:00,10.3,8.0,29.05,SE,135,6.0,14.0,92,0.00,,,0.00,Rainwise IP-100,2013-12-14 12:44:00,
2013-12-14 07:49:00,10.3,8.0,29.05,SE,135,6.0,13.0,92,0.00,,,0.00,Rainwise IP-100,2013-12-14 12:49:00,
2013-12-14 07:54:00,10.3,8.0,29.05,ESE,112,11.0,11.0,92,0.00,,,0.00,Rainwise IP-100,2013-12-14 12:54:00,
2013-12-14 08:00:00,10.3,8.0,29.05,SE,135,7.0,15.0,92,0.00,,,0.00,Rainwise IP-100,2013-12-14 13:00:00,
2013-12-14 08:05:00,10.4,8.0,29.05,SE,135,5.0,9.0,92,0.00,,,0.00,Rainwise IP-100,2013-12-14 13:05:00,
2013-12-14 08:10:00,10.4,8.0,29.05,ESE,112,6.0,12.0,92,0.00,,,0.00,Rainwise IP-100,2013-12-14 13:10:00,
2013-12-14 08:15:00,10.6,8.0,29.04,ESE,112,6.0,13.0,92,0.00,,,0.00,Rainwise IP-100,2013-12-14 13:15:00,
2013-12-14 08:20:00,10.7,8.0,29.04,ESE,112,4.0,12.0,92,0.00,,,0.00,Rainwise IP-100,2013-12-14 13:20:00,
2013-12-14 08:25:00,10.8,8.0,29.05,ESE,112,8.0,11.0,92,0.00,,,0.00,Rainwise IP-100,2013-12-14 13:25:00,
2013-12-14 08:30:00,10.8,8.0,29.04,East,90,5.0,12.0,92,0.00,,,0.00,Rainwise IP-100,2013-12-14 13:30:00,
2013-12-14 08:35:00,10.8,8.0,29.04,ESE,112,2.0,11.0,92,0.00,,,0.00,Rainwise IP-100,2013-12-14 13:35:00,
2013-12-14 08:40:00,10.8,8.0,29.04,ESE,112,4.0,10.0,92,0.00,,,0.00,Rainwise IP-100,2013-12-14 13:40:00,
2013-12-14 08:45:00,10.9,8.0,29.04,SE,135,4.0,11.0,92,0.00,,,0.00,Rainwise IP-100,2013-12-14 13:45:00,
2013-12-14 08:50:00,10.9,8.0,29.04,ESE,112,7.0,11.0,92,0.00,,,0.00,Rainwise IP-100,2013-12-14 13:50:00,
2013-12-14 08:55:00,10.9,8.0,29.04,ESE,112,9.0,12.0,92,0.00,,,0.00,Rainwise IP-100,2013-12-14 13:55:00,
2013-12-14 09:01:00,11.1,11.0,29.04,East,90,5.0,12.0,93,0.00,,,0.00,Rainwise IP-100,2013-12-14 14:01:00,
2013-12-14 09:06:00,11.1,11.0,29.04,ESE,112,4.0,16.0,93,0.00,,,0.00,Rainwise IP-100,2013-12-14 14:06:00,
2013-12-14 09:11:00,11.2,11.0,29.03,East,90,4.0,8.0,93,0.00,,,0.00,Rainwise IP-100,2013-12-14 14:11:00,
2013-12-14 09:16:00,11.2,11.0,29.03,ESE,112,4.0,15.0,93,0.00,,,0.00,Rainwise IP-100,2013-12-14 14:16:00,
2013-12-14 09:21:00,11.2,8.0,29.03,SE,135,8.0,12.0,92,0.00,,,0.00,Rainwise IP-100,2013-12-14 14:21:00,
2013-12-14 09:26:00,11.3,8.0,29.03,ESE,112,4.0,12.0,91,0.00,,,0.00,Rainwise IP-100,2013-12-14 14:26:00,
2013-12-14 09:31:00,11.4,8.0,29.03,ENE,67,4.0,11.0,92,0.00,,,0.00,Rainwise IP-100,2013-12-14 14:31:00,
2013-12-14 09:36:00,11.5,11.0,29.03,East,90,2.0,7.0,92,0.00,,,0.00,Rainwise IP-100,2013-12-14 14:36:00,
2013-12-14 09:41:00,11.7,11.0,29.03,East,90,4.0,13.0,91,0.00,,,0.00,Rainwise IP-100,2013-12-14 14:41:00,
2013-12-14 09:46:00,11.8,11.0,29.03,ESE,112,2.0,9.0,92,0.00,,,0.00,Rainwise IP-100,2013-12-14 14:46:00,
2013-12-14 09:51:00,11.9,11.0,29.03,East,90,6.0,10.0,93,0.00,,,0.00,Rainwise IP-100,2013-12-14 14:51:00,
2013-12-14 09:56:00,11.9,11.0,29.02,East,90,4.0,12.0,93,0.00,,,0.00,Rainwise IP-100,2013-12-14 14:56:00,
2013-12-14 10:02:00,11.9,11.0,29.02,East,90,4.0,10.0,93,0.00,,,0.00,Rainwise IP-100,2013-12-14 15:02:00,
2013-12-14 10:07:00,11.9,11.0,29.02,ESE,112,2.0,11.0,93,0.00,,,0.00,Rainwise IP-100,2013-12-14 15:07:00,
2013-12-14 10:12:00,11.9,11.0,29.02,ESE,112,6.0,11.0,93,0.00,,,0.00,Rainwise IP-100,2013-12-14 15:12:00,
2013-12-14 10:17:00,12.1,11.0,29.03,East,90,4.0,8.0,93,0.00,,,0.00,Rainwise IP-100,2013-12-14 15:17:00,
2013-12-14 10:22:00,12.2,11.0,29.02,East,90,6.0,11.0,93,0.00,,,0.00,Rainwise IP-100,2013-12-14 15:22:00,
2013-12-14 10:27:00,12.2,11.0,29.02,ESE,112,2.0,11.0,93,0.00,,,0.00,Rainwise IP-100,2013-12-14 15:27:00,
2013-12-14 10:32:00,12.2,11.0,29.02,East,90,2.0,12.0,93,0.00,,,0.00,Rainwise IP-100,2013-12-14 15:32:00,
2013-12-14 10:37:00,12.2,11.0,29.02,ESE,112,6.0,10.0,93,0.00,,,0.00,Rainwise IP-100,2013-12-14 15:37:00,
2013-12-14 10:42:00,12.3,11.0,29.01,East,90,4.0,12.0,93,0.00,,,0.00,Rainwise IP-100,2013-12-14 15:42:00,
2013-12-14 10:47:00,12.3,11.0,29.00,ENE,67,2.0,10.0,93,0.00,,,0.00,Rainwise IP-100,2013-12-14 15:47:00,
2013-12-14 10:52:00,12.4,11.0,29.00,ESE,112,2.0,10.0,93,0.00,,,0.00,Rainwise IP-100,2013-12-14 15:52:00,
2013-12-14 10:57:00,12.5,11.0,29.00,East,90,4.0,14.0,93,0.00,,,0.00,Rainwise IP-100,2013-12-14 15:57:00,
2013-12-14 11:03:00,12.6,11.0,29.01,East,90,2.0,12.0,93,0.00,,,0.00,Rainwise IP-100,2013-12-14 16:03:00,
2013-12-14 11:08:00,12.6,11.0,29.00,ESE,112,2.0,15.0,93,0.00,,,0.00,Rainwise IP-100,2013-12-14 16:08:00,
2013-12-14 11:13:00,12.7,11.0,29.00,ESE,112,7.0,16.0,93,0.00,,,0.00,Rainwise IP-100,2013-12-14 16:13:00,
2013-12-14 11:18:00,12.8,11.0,29.00,NNE,22,4.0,15.0,93,0.00,,,0.00,Rainwise IP-100,2013-12-14 16:18:00,
2013-12-14 11:23:00,12.9,11.0,29.00,ESE,112,12.0,12.0,93,0.00,,,0.00,Rainwise IP-100,2013-12-14 16:23:00,
2013-12-14 11:28:00,13.1,11.0,28.99,ESE,112,2.0,12.0,93,0.00,,,0.00,Rainwise IP-100,2013-12-14 16:28:00,
2013-12-14 11:33:00,13.3,11.0,28.99,ESE,112,7.0,10.0,93,0.00,,,0.00,Rainwise IP-100,2013-12-14 16:33:00,
2013-12-14 11:38:00,13.3,11.0,28.98,ENE,67,3.0,12.0,93,0.00,,,0.00,Rainwise IP-100,2013-12-14 16:38:00,
2013-12-14 11:43:00,13.3,11.0,28.97,NE,45,5.0,7.0,93,0.00,,,0.00,Rainwise IP-100,2013-12-14 16:43:00,
2013-12-14 11:48:00,13.3,11.0,28.97,ESE,112,9.0,13.0,93,0.00,,,0.00,Rainwise IP-100,2013-12-14 16:48:00,
2013-12-14 11:53:00,13.3,11.0,28.96,ENE,67,3.0,9.0,93,0.00,,,0.00,Rainwise IP-100,2013-12-14 16:53:00,
2013-12-14 11:58:00,13.3,11.0,28.96,East,90,4.0,12.0,93,0.00,,,0.00,Rainwise IP-100,2013-12-14 16:58:00,
2013-12-14 12:04:00,13.3,11.0,28.96,ENE,67,5.0,13.0,93,0.00,,,0.00,Rainwise IP-100,2013-12-14 17:04:00,
2013-12-14 12:09:00,13.3,11.0,28.95,East,90,6.0,13.0,93,0.00,,,0.00,Rainwise IP-100,2013-12-14 17:09:00,
2013-12-14 12:14:00,13.3,11.0,28.94,East,90,6.0,16.0,93,0.00,,,0.00,Rainwise IP-100,2013-12-14 17:14:00,
2013-12-14 12:19:00,13.4,11.0,28.94,ESE,112,8.0,14.0,93,0.00,,,0.00,Rainwise IP-100,2013-12-14 17:19:00,
2013-12-14 12:24:00,13.6,11.0,28.93,ENE,67,4.0,15.0,93,0.00,,,0.00,Rainwise IP-100,2013-12-14 17:24:00,
2013-12-14 12:29:00,13.7,11.0,28.93,East,90,3.0,14.0,93,0.00,,,0.00,Rainwise IP-100,2013-12-14 17:29:00,
2013-12-14 12:34:00,13.9,11.0,28.92,ENE,67,7.0,11.0,93,0.00,,,0.00,Rainwise IP-100,2013-12-14 17:34:00,
2013-12-14 12:39:00,13.9,11.0,28.92,ENE,67,4.0,12.0,93,0.00,,,0.00,Rainwise IP-100,2013-12-14 17:39:00,
2013-12-14 12:44:00,14.1,11.0,28.92,ESE,112,9.0,12.0,93,0.00,,,0.00,Rainwise IP-100,2013-12-14 17:44:00,
2013-12-14 12:49:00,14.2,11.0,28.91,SSE,157,2.0,11.0,93,0.00,,,0.00,Rainwise IP-100,2013-12-14 17:49:00,
2013-12-14 12:54:00,14.3,11.0,28.91,SE,135,8.0,10.0,93,0.00,,,0.00,Rainwise IP-100,2013-12-14 17:54:00,
2013-12-14 12:59:00,14.4,11.0,28.91,East,90,4.0,11.0,93,0.00,,,0.00,Rainwise IP-100,2013-12-14 17:59:00,
2013-12-14 13:05:00,14.5,14.0,28.91,ENE,67,5.0,14.0,93,0.00,,,0.00,Rainwise IP-100,2013-12-14 18:05:00,
2013-12-14 13:10:00,14.6,14.0,28.90,ENE,67,2.0,7.0,93,0.00,,,0.00,Rainwise IP-100,2013-12-14 18:10:00,
2013-12-14 13:15:00,14.7,14.0,28.90,ENE,67,4.0,9.0,93,0.00,,,0.00,Rainwise IP-100,2013-12-14 18:15:00,
2013-12-14 13:20:00,14.7,14.0,28.89,East,90,7.0,11.0,93,0.00,,,0.00,Rainwise IP-100,2013-12-14 18:20:00,
2013-12-14 13:25:00,14.7,14.0,28.89,ENE,67,4.0,9.0,93,0.00,,,0.00,Rainwise IP-100,2013-12-14 18:25:00,
2013-12-14 13:30:00,14.7,14.0,28.89,East,90,1.0,9.0,93,0.00,,,0.00,Rainwise IP-100,2013-12-14 18:30:00,
2013-12-14 13:35:00,14.7,14.0,28.88,ENE,67,4.0,8.0,93,0.00,,,0.00,Rainwise IP-100,2013-12-14 18:35:00,
2013-12-14 13:40:00,14.8,14.0,28.87,ENE,67,2.0,10.0,93,0.00,,,0.00,Rainwise IP-100,2013-12-14 18:40:00,
2013-12-14 13:45:00,14.9,14.0,28.87,South,180,2.0,9.0,93,0.00,,,0.00,Rainwise IP-100,2013-12-14 18:45:00,
2013-12-14 13:50:00,14.9,14.0,28.86,East,90,4.0,11.0,93,0.00,,,0.00,Rainwise IP-100,2013-12-14 18:50:00,
2013-12-14 13:55:00,14.9,14.0,28.85,East,90,6.0,12.0,93,0.00,,,0.00,Rainwise IP-100,2013-12-14 18:55:00,
2013-12-14 14:00:00,14.9,14.0,28.85,ENE,67,7.0,12.0,93,0.00,,,0.00,Rainwise IP-100,2013-12-14 19:00:00,
2013-12-14 14:06:00,14.9,14.0,28.85,East,90,5.0,11.0,93,0.00,,,0.00,Rainwise IP-100,2013-12-14 19:06:00,
2013-12-14 14:11:00,14.9,14.0,28.84,ENE,67,4.0,11.0,93,0.00,,,0.00,Rainwise IP-100,2013-12-14 19:11:00,
2013-12-14 14:16:00,15.1,14.0,28.84,East,90,3.0,13.0,93,0.00,,,0.00,Rainwise IP-100,2013-12-14 19:16:00,
2013-12-14 14:21:00,15.1,14.0,28.83,ESE,112,6.0,9.0,93,0.00,,,0.00,Rainwise IP-100,2013-12-14 19:21:00,
2013-12-14 14:26:00,15.1,14.0,28.83,East,90,5.0,12.0,93,0.00,,,0.00,Rainwise IP-100,2013-12-14 19:26:00,
2013-12-14 14:31:00,15.2,14.0,28.83,East,90,6.0,14.0,93,0.00,,,0.00,Rainwise IP-100,2013-12-14 19:31:00,
2013-12-14 14:36:00,15.2,14.0,28.82,ENE,67,4.0,15.0,93,0.00,,,0.00,Rainwise IP-100,2013-12-14 19:36:00,
2013-12-14 14:41:00,15.2,14.0,28.81,East,90,5.0,10.0,93,0.00,,,0.00,Rainwise IP-100,2013-12-14 19:41:00,
2013-12-14 14:46:00,15.2,14.0,28.81,East,90,4.0,13.0,93,0.00,,,0.00,Rainwise IP-100,2013-12-14 19:46:00,
2013-12-14 14:51:00,15.2,14.0,28.80,ESE,112,3.0,12.0,93,0.00,,,0.00,Rainwise IP-100,2013-12-14 19:51:00,
2013-12-14 14:56:00,15.1,14.0,28.80,East,90,5.0,11.0,93,0.00,,,0.00,Rainwise IP-100,2013-12-14 19:56:00,
2013-12-14 15:01:00,15.1,14.0,28.80,East,90,3.0,14.0,93,0.00,,,0.00,Rainwise IP-100,2013-12-14 20:01:00,
2013-12-14 15:07:00,15.1,14.0,28.79,ENE,67,7.0,11.0,93,0.00,,,0.00,Rainwise IP-100,2013-12-14 20:07:00,
2013-12-14 15:12:00,15.1,14.0,28.79,East,90,5.0,12.0,93,0.00,,,0.00,Rainwise IP-100,2013-12-14 20:12:00,
2013-12-14 15:17:00,15.2,14.0,28.78,ENE,67,2.0,16.0,93,0.00,,,0.00,Rainwise IP-100,2013-12-14 20:17:00,
2013-12-14 15:22:00,15.2,14.0,28.78,East,90,4.0,10.0,93,0.00,,,0.00,Rainwise IP-100,2013-12-14 20:22:00,
2013-12-14 15:27:00,15.2,14.0,28.78,ENE,67,2.0,11.0,93,0.00,,,0.00,Rainwise IP-100,2013-12-14 20:27:00,
2013-12-14 15:32:00,15.2,14.0,28.78,East,90,4.0,12.0,93,0.00,,,0.00,Rainwise IP-100,2013-12-14 20:32:00,
2013-12-14 15:37:00,15.3,14.0,28.77,ENE,67,9.0,13.0,93,0.00,,,0.00,Rainwise IP-100,2013-12-14 20:37:00,
2013-12-14 15:42:00,15.3,14.0,28.77,East,90,2.0,11.0,93,0.00,,,0.00,Rainwise IP-100,2013-12-14 20:42:00,
2013-12-14 15:47:00,15.4,14.0,28.77,East,90,6.0,12.0,93,0.00,,,0.00,Rainwise IP-100,2013-12-14 20:47:00,
2013-12-14 15:52:00,15.3,14.0,28.77,East,90,6.0,16.0,93,0.00,,,0.00,Rainwise IP-100,2013-12-14 20:52:00,
2013-12-14 15:57:00,15.3,14.0,28.77,ENE,67,2.0,9.0,93,0.00,,,0.00,Rainwise IP-100,2013-12-14 20:57:00,
2013-12-14 16:02:00,15.3,14.0,28.76,East,90,9.0,12.0,93,0.00,,,0.00,Rainwise IP-100,2013-12-14 21:02:00,
2013-12-14 16:08:00,15.3,14.0,28.76,East,90,7.0,13.0,93,0.00,,,0.00,Rainwise IP-100,2013-12-14 21:08:00,
2013-12-14 16:13:00,15.3,14.0,28.75,ENE,67,4.0,9.0,93,0.00,,,0.00,Rainwise IP-100,2013-12-14 21:13:00,
2013-12-14 16:18:00,15.4,14.0,28.75,ENE,67,3.0,12.0,93,0.00,,,0.00,Rainwise IP-100,2013-12-14 21:18:00,
2013-12-14 16:23:00,15.3,14.0,28.75,ENE,67,3.0,12.0,93,0.00,,,0.00,Rainwise IP-100,2013-12-14 21:23:00,
2013-12-14 16:28:00,15.2,14.0,28.74,NE,45,2.0,9.0,93,0.00,,,0.00,Rainwise IP-100,2013-12-14 21:28:00,
2013-12-14 16:33:00,15.2,14.0,28.74,East,90,4.0,7.0,93,0.00,,,0.00,Rainwise IP-100,2013-12-14 21:33:00,
2013-12-14 16:38:00,15.1,14.0,28.74,East,90,4.0,10.0,93,0.00,,,0.00,Rainwise IP-100,2013-12-14 21:38:00,
2013-12-14 16:43:00,14.9,14.0,28.73,East,90,5.0,15.0,93,0.00,,,0.00,Rainwise IP-100,2013-12-14 21:43:00,
2013-12-14 16:48:00,14.8,14.0,28.73,ENE,67,2.0,12.0,93,0.00,,,0.00,Rainwise IP-100,2013-12-14 21:48:00,
2013-12-14 16:53:00,14.8,14.0,28.72,ENE,67,2.0,13.0,93,0.00,,,0.00,Rainwise IP-100,2013-12-14 21:53:00,
2013-12-14 16:58:00,14.8,14.0,28.72,ESE,112,7.0,7.0,93,0.00,,,0.00,Rainwise IP-100,2013-12-14 21:58:00,
2013-12-14 17:03:00,14.8,14.0,28.71,East,90,6.0,11.0,93,0.00,,,0.00,Rainwise IP-100,2013-12-14 22:03:00,
2013-12-14 17:09:00,14.8,14.0,28.71,East,90,3.0,11.0,93,0.00,,,0.00,Rainwise IP-100,2013-12-14 22:09:00,
2013-12-14 17:14:00,14.7,14.0,28.70,East,90,6.0,10.0,93,0.00,,,0.00,Rainwise IP-100,2013-12-14 22:14:00,
2013-12-14 17:19:00,14.6,14.0,28.70,ESE,112,5.0,11.0,93,0.00,,,0.00,Rainwise IP-100,2013-12-14 22:19:00,
2013-12-14 17:24:00,14.6,14.0,28.70,ESE,112,7.0,11.0,93,0.00,,,0.00,Rainwise IP-100,2013-12-14 22:24:00,
2013-12-14 17:29:00,14.7,14.0,28.69,NE,45,5.0,13.0,93,0.00,,,0.00,Rainwise IP-100,2013-12-14 22:29:00,
2013-12-14 17:34:00,14.7,14.0,28.69,East,90,6.0,11.0,93,0.00,,,0.00,Rainwise IP-100,2013-12-14 22:34:00,
2013-12-14 17:39:00,14.8,14.0,28.69,East,90,3.0,7.0,93,0.00,,,0.00,Rainwise IP-100,2013-12-14 22:39:00,
2013-12-14 17:44:00,14.9,14.0,28.69,East,90,6.0,11.0,93,0.00,,,0.00,Rainwise IP-100,2013-12-14 22:44:00,
2013-12-14 17:49:00,14.9,14.0,28.69,ENE,67,5.0,11.0,93,0.00,,,0.00,Rainwise IP-100,2013-12-14 22:49:00,
2013-12-14 17:54:00,15.1,14.0,28.69,ENE,67,8.0,11.0,93,0.00,,,0.00,Rainwise IP-100,2013-12-14 22:54:00,
2013-12-14 17:59:00,15.2,14.0,28.69,ENE,67,6.0,14.0,93,0.00,,,0.00,Rainwise IP-100,2013-12-14 22:59:00,
2013-12-14 18:04:00,15.3,14.0,28.68,SE,135,6.0,14.0,93,0.00,,,0.00,Rainwise IP-100,2013-12-14 23:04:00,
2013-12-14 18:10:00,15.4,14.0,28.68,NE,45,3.0,11.0,93,0.00,,,0.00,Rainwise IP-100,2013-12-14 23:10:00,
2013-12-14 18:15:00,15.4,14.0,28.68,East,90,4.0,13.0,93,0.00,,,0.00,Rainwise IP-100,2013-12-14 23:15:00,
2013-12-14 18:20:00,15.5,14.0,28.67,East,90,2.0,11.0,93,0.00,,,0.00,Rainwise IP-100,2013-12-14 23:20:00,
2013-12-14 18:25:00,15.5,14.0,28.67,East,90,2.0,11.0,93,0.00,,,0.00,Rainwise IP-100,2013-12-14 23:25:00,
2013-12-14 18:30:00,15.6,14.0,28.67,East,90,4.0,9.0,93,0.00,,,0.00,Rainwise IP-100,2013-12-14 23:30:00,
2013-12-14 18:35:00,15.6,14.0,28.67,ESE,112,2.0,11.0,93,0.00,,,0.00,Rainwise IP-100,2013-12-14 23:35:00,
2013-12-14 18:40:00,15.6,14.0,28.66,ENE,67,4.0,9.0,93,0.00,,,0.00,Rainwise IP-100,2013-12-14 23:40:00,
2013-12-14 18:45:00,15.6,14.0,28.66,ENE,67,2.0,11.0,93,0.00,,,0.00,Rainwise IP-100,2013-12-14 23:45:00,
2013-12-14 18:50:00,15.6,14.0,28.66,ENE,67,5.0,7.0,93,0.00,,,0.00,Rainwise IP-100,2013-12-14 23:50:00,
2013-12-14 18:55:00,15.6,14.0,28.65,East,90,4.0,7.0,93,0.00,,,0.00,Rainwise IP-100,2013-12-14 23:55:00,
2013-12-14 19:00:00,15.6,14.0,28.65,ENE,67,2.0,9.0,93,0.00,,,0.00,Rainwise IP-100,2013-12-15 00:00:00,
2013-12-14 19:05:00,15.6,14.0,28.65,NE,45,6.0,6.0,93,0.00,,,0.00,Rainwise IP-100,2013-12-15 00:05:00,
2013-12-14 19:11:00,15.6,14.0,28.65,East,90,4.0,9.0,93,0.00,,,0.00,Rainwise IP-100,2013-12-15 00:11:00,
2013-12-14 19:16:00,15.6,14.0,28.64,East,90,6.0,9.0,93,0.00,,,0.00,Rainwise IP-100,2013-12-15 00:16:00,
2013-12-14 19:21:00,15.7,14.0,28.64,ENE,67,1.0,9.0,93,0.00,,,0.00,Rainwise IP-100,2013-12-15 00:21:00,
2013-12-14 19:26:00,15.6,14.0,28.63,East,90,6.0,9.0,93,0.00,,,0.00,Rainwise IP-100,2013-12-15 00:26:00,
2013-12-14 19:31:00,15.6,14.0,28.63,ENE,67,1.0,14.0,93,0.00,,,0.00,Rainwise IP-100,2013-12-15 00:31:00,
2013-12-14 19:36:00,15.5,14.0,28.63,East,90,6.0,9.0,93,0.00,,,0.00,Rainwise IP-100,2013-12-15 00:36:00,
2013-12-14 19:41:00,15.5,14.0,28.62,East,90,6.0,10.0,93,0.00,,,0.00,Rainwise IP-100,2013-12-15 00:41:00,
2013-12-14 19:46:00,15.5,14.0,28.61,East,90,2.0,11.0,93,0.00,,,0.00,Rainwise IP-100,2013-12-15 00:46:00,
2013-12-14 19:51:00,15.4,14.0,28.61,East,90,4.0,9.0,93,0.00,,,0.00,Rainwise IP-100,2013-12-15 00:51:00,
2013-12-14 19:56:00,15.3,14.0,28.61,North,360,2.0,12.0,93,0.00,,,0.00,Rainwise IP-100,2013-12-15 00:56:00,
2013-12-14 20:01:00,15.3,14.0,28.60,NE,45,2.0,11.0,93,0.00,,,0.00,Rainwise IP-100,2013-12-15 01:01:00,
2013-12-14 20:06:00,15.3,14.0,28.60,East,90,2.0,12.0,93,0.00,,,0.00,Rainwise IP-100,2013-12-15 01:06:00,
2013-12-14 20:12:00,15.3,14.0,28.60,ENE,67,7.0,10.0,93,0.00,,,0.00,Rainwise IP-100,2013-12-15 01:12:00,
2013-12-14 20:17:00,15.3,14.0,28.60,East,90,4.0,11.0,93,0.00,,,0.00,Rainwise IP-100,2013-12-15 01:17:00,
2013-12-14 20:22:00,15.3,14.0,28.59,ENE,67,4.0,9.0,93,0.00,,,0.00,Rainwise IP-100,2013-12-15 01:22:00,
2013-12-14 20:27:00,15.3,14.0,28.59,ENE,67,2.0,10.0,93,0.00,,,0.00,Rainwise IP-100,2013-12-15 01:27:00,
2013-12-14 20:32:00,15.3,14.0,28.57,ENE,67,6.0,10.0,93,0.00,,,0.00,Rainwise IP-100,2013-12-15 01:32:00,
2013-12-14 20:37:00,15.2,14.0,28.56,NE,45,6.0,10.0,93,0.00,,,0.00,Rainwise IP-100,2013-12-15 01:37:00,
2013-12-14 20:42:00,15.3,14.0,28.56,ESE,112,5.0,8.0,93,0.00,,,0.00,Rainwise IP-100,2013-12-15 01:42:00,
2013-12-14 20:47:00,15.3,14.0,28.56,ENE,67,2.0,8.0,93,0.00,,,0.00,Rainwise IP-100,2013-12-15 01:47:00,
2013-12-14 20:52:00,15.3,14.0,28.55,ENE,67,2.0,9.0,93,0.00,,,0.00,Rainwise IP-100,2013-12-15 01:52:00,
2013-12-14 20:57:00,15.3,14.0,28.55,ENE,67,4.0,11.0,93,0.00,,,0.00,Rainwise IP-100,2013-12-15 01:57:00,
2013-12-14 21:02:00,15.4,14.0,28.55,ENE,67,2.0,9.0,93,0.00,,,0.00,Rainwise IP-100,2013-12-15 02:02:00,
2013-12-14 21:07:00,15.4,14.0,28.55,ESE,112,2.0,9.0,93,0.00,,,0.00,Rainwise IP-100,2013-12-15 02:07:00,
2013-12-14 21:13:00,15.4,14.0,28.54,ENE,67,3.0,9.0,93,0.00,,,0.00,Rainwise IP-100,2013-12-15 02:13:00,
2013-12-14 21:18:00,15.5,14.0,28.54,ENE,67,3.0,8.0,93,0.00,,,0.00,Rainwise IP-100,2013-12-15 02:18:00,
2013-12-14 21:23:00,15.4,14.0,28.53,East,90,3.0,11.0,93,0.00,,,0.00,Rainwise IP-100,2013-12-15 02:23:00,
2013-12-14 21:28:00,15.5,14.0,28.53,ENE,67,2.0,8.0,93,0.00,,,0.00,Rainwise IP-100,2013-12-15 02:28:00,
2013-12-14 21:33:00,15.6,14.0,28.53,East,90,4.0,6.0,93,0.00,,,0.00,Rainwise IP-100,2013-12-15 02:33:00,
2013-12-14 21:38:00,15.7,14.0,28.52,East,90,3.0,9.0,93,0.00,,,0.00,Rainwise IP-100,2013-12-15 02:38:00,
2013-12-14 21:43:00,15.8,14.0,28.52,East,90,1.0,6.0,93,0.00,,,0.00,Rainwise IP-100,2013-12-15 02:43:00,
2013-12-14 21:48:00,15.8,14.0,28.51,East,90,2.0,6.0,93,0.00,,,0.00,Rainwise IP-100,2013-12-15 02:48:00,
2013-12-14 21:53:00,15.8,14.0,28.50,ENE,67,3.0,7.0,93,0.00,,,0.00,Rainwise IP-100,2013-12-15 02:53:00,
2013-12-14 21:58:00,15.9,14.0,28.51,NE,45,2.0,4.0,93,0.00,,,0.00,Rainwise IP-100,2013-12-15 02:58:00,
2013-12-14 22:03:00,15.9,14.0,28.50,ENE,67,4.0,8.0,93,0.00,,,0.00,Rainwise IP-100,2013-12-15 03:03:00,
2013-12-14 22:08:00,15.9,14.0,28.51,ENE,67,3.0,5.0,93,0.00,,,0.00,Rainwise IP-100,2013-12-15 03:08:00,
2013-12-14 22:14:00,15.9,14.0,28.49,ENE,67,4.0,7.0,93,0.00,,,0.00,Rainwise IP-100,2013-12-15 03:14:00,
2013-12-14 22:19:00,16.1,14.0,28.49,ENE,67,3.0,7.0,93,0.00,,,0.00,Rainwise IP-100,2013-12-15 03:19:00,
2013-12-14 22:24:00,16.2,14.0,28.49,ENE,67,2.0,6.0,93,0.00,,,0.00,Rainwise IP-100,2013-12-15 03:24:00,
2013-12-14 22:29:00,16.3,14.0,28.48,NE,45,5.0,7.0,93,0.00,,,0.00,Rainwise IP-100,2013-12-15 03:29:00,
2013-12-14 22:34:00,16.4,14.0,28.49,East,90,6.0,6.0,93,0.00,,,0.00,Rainwise IP-100,2013-12-15 03:34:00,
2013-12-14 22:39:00,16.4,14.0,28.47,NE,45,2.0,6.0,93,0.00,,,0.00,Rainwise IP-100,2013-12-15 03:39:00,
2013-12-14 22:44:00,16.5,16.0,28.46,NE,45,4.0,5.0,93,0.00,,,0.00,Rainwise IP-100,2013-12-15 03:44:00,
2013-12-14 22:49:00,16.6,16.0,28.46,NE,45,3.0,6.0,93,0.00,,,0.00,Rainwise IP-100,2013-12-15 03:49:00,
2013-12-14 22:54:00,16.7,16.0,28.45,NE,45,2.0,5.0,93,0.00,,,0.00,Rainwise IP-100,2013-12-15 03:54:00,
2013-12-14 22:59:00,16.8,16.0,28.45,NE,45,6.0,6.0,93,0.00,,,0.00,Rainwise IP-100,2013-12-15 03:59:00,
2013-12-14 23:04:00,16.9,16.0,28.44,NE,45,3.0,7.0,93,0.00,,,0.00,Rainwise IP-100,2013-12-15 04:04:00,
2013-12-14 23:09:00,17.0,16.0,28.45,NE,45,3.0,6.0,93,0.00,,,0.00,Rainwise IP-100,2013-12-15 04:09:00,
2013-12-14 23:15:00,17.1,16.0,28.44,ENE,67,3.0,7.0,93,0.00,,,0.00,Rainwise IP-100,2013-12-15 04:15:00,
2013-12-14 23:20:00,17.2,16.0,28.44,ENE,67,3.0,7.0,93,0.00,,,0.00,Rainwise IP-100,2013-12-15 04:20:00,
2013-12-14 23:25:00,17.3,16.0,28.44,NE,45,3.0,8.0,93,0.00,,,0.00,Rainwise IP-100,2013-12-15 04:25:00,
2013-12-14 23:30:00,17.4,16.0,28.44,NE,45,4.0,7.0,93,0.00,,,0.00,Rainwise IP-100,2013-12-15 04:30:00,
2013-12-14 23:35:00,17.6,16.0,28.44,NE,45,4.0,11.0,93,0.00,,,0.00,Rainwise IP-100,2013-12-15 04:35:00,
2013-12-14 23:40:00,17.7,16.0,28.44,ENE,67,4.0,8.0,93,0.00,,,0.00,Rainwise IP-100,2013-12-15 04:40:00,
2013-12-14 23:45:00,17.9,16.0,28.44,NE,45,4.0,7.0,93,0.00,,,0.00,Rainwise IP-100,2013-12-15 04:45:00,
2013-12-14 23:50:00,18.0,16.0,28.43,NE,45,4.0,7.0,93,0.00,,,0.00,Rainwise IP-100,2013-12-15 04:50:00,
2013-12-14 23:55:00,18.1,16.0,28.43,NE,45,2.0,6.0,93,0.00,,,0.00,Rainwise IP-100,2013-12-15 04:55:00,